Livermore, CA

12:06 AM PDT on May 26, 2018 (GMT -0700)
Livermore Municipal

Weather History for KLVK - October, 2010

Change the Weather History Date:

Sunday, October 3, 2010

  Actual Average Record
Temperature  
Mean Temperature 66 °F 66 °F  
Max Temperature 75 °F 80 °F 106 °F (1980)
Min Temperature 56 °F 52 °F 39 °F (1973)
Degree Days  
Heating Degree Days 0 1  
Month to date heating degree days 0 3  
Since 1 July heating degree days 24 27  
Cooling Degree Days 1 3  
Month to date cooling degree days 13 9  
Year to date cooling degree days 647 798  
Growing Degree Days 14 (Base 50)    
Moisture  
Dew Point 52 °F    
Average Humidity 68    
Maximum Humidity 86    
Minimum Humidity 49    
Precipitation  
Precipitation 0.00 in 0.01 in 0.14 in (1967)
Month to date precipitation T 0.04  
Year to date precipitation 10.87 10.17  
Since 1 July precipitation T  
Sea Level Pressure  
Sea Level Pressure 29.94 in    
Wind  
Wind Speed 10 mph (West)    
Max Wind Speed 22 mph    
Max Gust Speed 26 mph    
Visibility 10 miles    
Events      
T = Trace of Precipitation, MM = Missing Value Source: NWS Daily Summary

Daily Weather History Graph

Daily Weather History Graph

Search for Another Location

Airport or City:

Astronomy

Oct. 03, 2010 Rise Set
Actual Time 7:04 AM PDT 6:47 PM PDT
Civil Twilight 6:38 AM PDT 7:13 PM PDT
Nautical Twilight 6:08 AM PDT 7:43 PM PDT
Astronomical Twilight 5:37 AM PDT 8:14 PM PDT
Moon 2:12 AM PDT (10/3) 4:10 PM PDT (10/3)
Length of Visible Light 12h 34m
Length of Day
11h 42m
Waning Crescent, 22% of the Moon is Illuminated
Oct 3
Waning Crescent
Oct 7
New
Oct 14
First Quarter
Oct 22
Full
Oct 30
Last Quarter

Hourly Weather History & Observations

Time (PDT) Temp. Dew Point Humidity Pressure Visibility Wind Dir Wind Speed Gust Speed Precip Events Conditions
12:53 AM 59.0 °F 52.0 °F 78% 29.91 in 10.0 mi WNW 8.1 mph - N/A   Clear
1:53 AM 57.9 °F 52.0 °F 81% 29.92 in 10.0 mi WNW 5.8 mph - N/A   Clear
2:53 AM 57.0 °F 52.0 °F 83% 29.92 in 10.0 mi WNW 8.1 mph - N/A   Clear
3:53 AM 57.0 °F 53.1 °F 87% 29.92 in 10.0 mi NW 8.1 mph - N/A   Clear
4:53 AM 57.0 °F 53.1 °F 87% 29.93 in 10.0 mi WNW 4.6 mph - N/A   Clear
5:53 AM 57.0 °F 52.0 °F 83% 29.94 in 10.0 mi NW 5.8 mph - N/A   Scattered Clouds
6:53 AM 57.0 °F 52.0 °F 83% 29.96 in 10.0 mi NW 8.1 mph - N/A   Mostly Cloudy
7:01 AM 57.2 °F 51.8 °F 82% 29.96 in 10.0 mi NW 8.1 mph - N/A   Mostly Cloudy
7:53 AM 57.0 °F 52.0 °F 83% 29.97 in 10.0 mi NW 3.5 mph - N/A   Mostly Cloudy
8:36 AM 57.2 °F 53.6 °F 88% 29.98 in 10.0 mi WNW 3.5 mph - N/A   Mostly Cloudy
8:53 AM 57.9 °F 53.1 °F 84% 29.98 in 10.0 mi Calm Calm - N/A   Scattered Clouds
9:25 AM 62.6 °F 53.6 °F 72% 29.99 in 10.0 mi WNW 5.8 mph - N/A   Mostly Cloudy
9:53 AM 62.1 °F 54.0 °F 75% 29.98 in 10.0 mi West 6.9 mph - N/A   Mostly Cloudy
10:18 AM 62.6 °F 53.6 °F 72% 29.98 in 10.0 mi West 5.8 mph - N/A   Partly Cloudy
10:53 AM 64.9 °F 53.1 °F 65% 29.97 in 10.0 mi West 5.8 mph - N/A   Clear
11:53 AM 69.1 °F 53.1 °F 57% 29.96 in 10.0 mi WNW 6.9 mph - N/A   Clear
12:53 PM 72.0 °F 53.1 °F 51% 29.94 in 10.0 mi WNW 8.1 mph - N/A   Clear
1:53 PM 73.0 °F 53.1 °F 49% 29.91 in 10.0 mi WNW 17.3 mph - N/A   Clear
2:53 PM 69.1 °F 53.1 °F 57% 29.91 in 10.0 mi WNW 19.6 mph - N/A   Clear
3:53 PM 68.0 °F 52.0 °F 56% 29.91 in 10.0 mi West 19.6 mph - N/A   Clear
4:53 PM 66.9 °F 51.1 °F 57% 29.91 in 10.0 mi West 16.1 mph - N/A   Clear
4:55 PM 66.2 °F 51.8 °F 60% 29.91 in 10.0 mi West 17.3 mph - N/A   Clear
5:53 PM 63.0 °F 51.1 °F 65% 29.91 in 10.0 mi West 16.1 mph - N/A   Clear
6:53 PM 57.9 °F 51.1 °F 78% 29.93 in 10.0 mi West 15.0 mph - N/A   Clear
7:53 PM 57.0 °F 51.1 °F 81% 29.94 in 10.0 mi West 16.1 mph - N/A   Clear
8:41 PM 57.2 °F 51.8 °F 82% 29.95 in 10.0 mi West 9.2 mph - N/A   Mostly Cloudy
8:53 PM 57.0 °F 51.1 °F 81% 29.95 in 10.0 mi West 9.2 mph - N/A   Overcast
9:22 PM 57.2 °F 51.8 °F 82% 29.95 in 10.0 mi West 6.9 mph - N/A   Scattered Clouds
9:53 PM 57.0 °F 50.0 °F 77% 29.96 in 10.0 mi SW 6.9 mph - N/A   Clear
10:20 PM 55.4 °F 51.8 °F 88% 29.96 in 10.0 mi SW 9.2 mph - N/A   Mostly Cloudy
10:53 PM 55.9 °F 51.1 °F 84% 29.96 in 10.0 mi WSW 8.1 mph - N/A   Mostly Cloudy
11:35 PM 57.2 °F 51.8 °F 82% 29.95 in 10.0 mi SW 10.4 mph - N/A   Overcast
11:53 PM 57.0 °F 51.1 °F 81% 29.95 in 10.0 mi SW 11.5 mph - N/A   Overcast